NIGERIASAT X

Satellite information

Favourite Embed

Satellite Type and Status

PAYLOADIN ORBIT

Key statistics

Satellite NIGERIASAT X at a glance.

Uptime

5133

Days in orbit

Revolutions

≈ 14.6

Per day

Orbit

SSO

Sun Synchronous Orbit

Inclination

97.8

Latest

Satellite identification and parameters

Extended collection of information and parameters for NIGERIASAT X.

Object identification

Identified? True

Debris? False

Object name: NIGERIASAT X

International designator: 2011-044C

Object number (NORAD): 37790

Object ID (CCSDS): 37790

Country: NIGERIA (NIG)

Current information (Y/N): Y

RCS size: MEDIUM

Orbital parameters

Period: 98.595 minutes

Inclination: 97.8319 deg

SMA: 7069.644 km

Apoapsis: 700.7 km

Periapsis: 682.318 km

RAAN: 241.2297 deg

Eccentricy: 0.00130008

Argument of periapsis: 150.8654 deg

Mean anomaly: 209.3276 deg

Mean motion: 14.60516389 rev/day

Mean motion (dot): 0.00000788 rev/day2

B* drag term: 0.00017120753 1/REarth

Two-line elements (TLE)

Creation date: Sept. 4, 2025, 10:13 a.m.

Reference frame: TEME

Reference center: EARTH

Epoch: Sept. 4, 2025, 12:11 a.m. UTC

TLE line 0: 0 NIGERIASAT X

TLE line 1: 1 37790U 11044C 25247.00795079 .00000788 00000-0 17121-3 0 9991

TLE line 2: 2 37790 97.8319 241.2297 0013001 150.8654 209.3276 14.60516389748399

Live tracking on map

Real-time ground track for satellite NIGERIASAT X.

In-orbit conjunctions

There are no conjunctions computed for NIGERIASAT X, at the moment. Check back to stay up to date, as we update our databases every day.

Go to all conjunctions

Associated space launch

NIGERIASAT X was lifted into orbit during the mission ‘Dnepr 1 | Sich-2’, on board a Dnepr space rocket.

The launch took place on Aug. 17, 2011, 7:12 a.m. from 370/13.

For more information about the launch, click the button.

Launch to space Dnepr 1 | Sich-2
Dnepr 1 | Sich-2

Agency: N/A

Status: Launch Successful

Launch date: Aug. 17, 2011, 7:12 a.m. UTC

Rocket: Dnepr

Launch pad: 370/13

Location: Dombarovskiy, Russian Federation

...

Latest news about this satellite

There are no fresh news available about this satellite. Check back as we update our databases every day.


Newsletter sign-up

Weekly statistics, charts and insights to help you stay on top of the space industry.